FW7889 Weather Reports


Display with metric or nautical units.
time (UTC)temp
F
wind
direction
speed
MPH
gust
MPH
rain 1hr
in
rain 24hr
in
rain mn
in
humidity
%
barometer
mb
20260901082447 62 275 0.0 0.0 0.19 0.29 0.29 99 1070.4
20260901081443 63 105 4.0 5.0 0.61 0.25 0.25 99 1070.2
20260901080438 63 302 0.0 0.0 0.38 0.14 0.14 99 1070.8
20260901075433 63 267 0.0 0.0 0.12 0.08 0.08 99 1070.3
20260901074433 63 191 1.0 1.0 0.05 0.06 0.06 99 1070.2
20260901073431 63 89 3.0 3.0 0.12 0.05 0.05 99 1070.3
20260901072432 64 135 2.0 2.0 0.19 0.03 0.03 99 1070.7
20260901071431 64 209 1.0 1.0 0.00 0.00 0.00 99 1070.8
20260901070427 64 197 1.0 1.0 0.00 0.00 0.00 99 1071.0
20260901065421 64 181 1.0 2.0 0.00 0.00 0.00 99 1071.3
20260901064418 64 202 2.0 2.0 0.00 0.00 0.00 99 1071.3
20260901063417 64 212 2.0 2.0 0.00 0.00 0.00 99 1071.1
20260901062415 64 198 2.0 2.0 0.00 0.00 0.00 99 1071.4
20260901061412 64 242 1.0 1.0 0.00 0.00 0.00 99 1071.5
20260901060409 64 199 1.0 1.0 0.00 0.00 0.00 99 1071.3
20260901055404 63 238 1.0 1.0 0.00 0.00 0.00 99 1071.6
20260901054404 63 227 1.0 1.0 0.00 0.00 0.00 99 1071.7
20260901053400 63 189 3.0 3.0 0.00 0.00 0.00 99 1071.7
20260901052357 63 256 0.0 0.0 0.00 0.00 0.00 99 1071.6
20260901051357 63 194 2.0 2.0 0.00 0.00 0.00 99 1071.8
20260901050353 63 274 0.0 0.0 0.00 0.00 0.00 99 1072.0
20260901045353 63 273 1.0 1.0 0.00 0.00 0.00 99 1072.3
20260901044351 63 253 0.0 0.0 0.00 0.00 0.00 99 1072.1
20260901043348 63 142 2.0 2.0 0.00 0.00 0.00 99 1072.2
20260901042348 63 194 1.0 2.0 0.00 0.00 0.00 99 1071.8
20260901041345 63 177 1.0 1.0 0.00 0.00 0.00 99 1072.3
20260901040344 63 225 0.0 0.0 0.00 0.00 0.00 99 1072.0
20260901035343 63 226 1.0 1.0 0.00 0.01 0.01 99 1072.3
20260901034342 63 224 1.0 1.0 0.00 0.01 0.01 99 1072.5
20260901033341 63 194 1.0 2.0 0.00 0.01 0.01 99 1072.1
20260901032340 63 162 2.0 2.0 0.00 0.01 0.01 99 1072.3
20260901031337 63 201 2.0 2.0 0.00 0.01 0.01 99 1072.5
20260901030332 63 257 0.0 0.0 0.00 0.01 0.01 99 1072.5
20260901025332 63 235 1.0 1.0 0.00 0.01 0.01 99 1072.6
20260901024332 63 201 1.0 1.0 0.00 0.01 0.01 99 1072.6
20260901023331 63 212 0.0 0.0 0.00 0.01 0.01 99 1072.6
20260901022328 63 221 1.0 2.0 0.00 0.01 0.01 99 1072.6
20260901021325 63 249 0.0 1.0 0.00 0.01 0.01 99 1072.6
20260901020321 63 194 1.0 1.0 0.00 0.01 0.01 99 1072.8
20260901015317 63 261 0.0 0.0 0.00 0.01 0.01 99 1072.9
20260901014312 63 263 0.0 1.0 0.00 0.01 0.01 99 1072.9
20260901013309 63 265 0.0 0.0 0.00 0.01 0.01 99 1072.8
20260901012306 63 268 0.0 0.0 0.00 0.01 0.01 99 1073.4
20260901011301 63 280 0.0 0.0 0.00 0.01 0.01 99 1073.4
20260901010302 63 275 0.0 0.0 0.00 0.01 0.01 99 1072.9
20260901005256 63 275 0.0 0.0 0.00 0.01 0.01 99 1072.9
20260901004251 63 186 1.0 1.0 0.00 0.01 0.01 99 1072.4
20260901003251 63 236 1.0 1.0 0.00 0.01 0.01 99 1072.8
20260901002251 63 257 0.0 0.0 0.00 0.01 0.01 99 1072.5
20260901001248 64 264 0.0 0.0 0.00 0.01 0.01 99 1072.4
20260901000244 64 256 0.0 1.0 0.00 0.01 0.01 99 1072.3
20260831235244 64 249 0.0 1.0 0.00 0.01 0.01 99 1072.5
20260831234243 64 236 1.0 1.0 0.00 0.01 0.01 99 1072.6
20260831233240 64 241 1.0 2.0 0.00 0.01 0.01 99 1072.5
20260831232237 64 193 2.0 2.0 0.00 0.01 0.01 99 1072.8
20260831231235 64 257 0.0 1.0 0.00 0.01 0.01 99 1072.6
20260831230230 65 244 0.0 1.0 0.00 0.01 0.01 99 1072.8
20260831225225 65 237 1.0 1.0 0.00 0.01 0.01 99 1073.1
20260831224221 65 272 0.0 0.0 0.00 0.01 0.01 99 1073.1
20260831223219 65 195 2.0 2.0 0.00 0.01 0.01 98 1073.1
20260831222216 65 260 0.0 0.0 0.00 0.01 0.01 97 1073.3
20260831221212 66 250 0.0 1.0 0.00 0.01 0.01 96 1073.1
20260831220208 66 237 1.0 1.0 0.00 0.01 0.01 95 1073.4
20260831215205 66 245 1.0 1.0 0.00 0.01 0.01 95 1073.5
20260831214204 66 197 2.0 2.0 0.00 0.01 0.01 95 1073.5
20260831213201 66 204 2.0 2.0 0.00 0.01 0.01 95 1073.5
20260831212159 66 254 0.0 1.0 0.00 0.01 0.01 95 1073.8
20260831211159 66 259 0.0 1.0 0.00 0.01 0.01 95 1073.6
20260831210155 66 262 0.0 0.0 0.00 0.01 0.01 95 1073.8
20260831205150 65 237 0.0 0.0 0.00 0.01 0.01 96 1073.6
20260831204149 65 255 0.0 1.0 0.05 0.01 0.01 98 1073.7
20260831203149 66 201 2.0 2.0 0.00 0.00 0.00 98 1073.9
20260831202149 66 274 1.0 1.0 0.00 0.00 0.00 97 1073.8
20260831201148 66 255 1.0 1.0 0.00 0.00 0.00 97 1073.6
20260831200144 66 262 0.0 0.0 0.00 0.00 0.00 98 1073.8
20260831195140 65 266 0.0 0.0 0.00 0.00 0.00 99 1073.8
20260831194137 64 250 0.0 0.0 0.00 0.00 0.00 99 1073.9
20260831193132 64 255 2.0 2.0 0.00 0.00 0.00 99 1074.1
20260831192129 64 272 1.0 1.0 0.00 0.00 0.00 99 1074.1
20260831191126 66 276 2.0 2.0 0.00 0.00 0.00 96 1074.3
20260831190126 68 276 2.0 2.0 0.00 0.00 0.00 91 1074.5
20260831185123 68 272 1.0 1.0 0.00 0.00 0.00 90 1074.2
20260831184119 68 256 0.0 0.0 0.00 0.00 0.00 89 1074.2
20260831183118 68 273 1.0 1.0 0.00 0.00 0.00 88 1074.5
20260831182113 68 269 1.0 1.0 0.00 0.00 0.00 90 1074.6
20260831181113 67 265 1.0 1.0 0.00 0.00 0.00 91 1074.5
20260831180109 67 278 0.0 0.0 0.00 0.00 0.00 94 1074.6
20260831175107 67 258 0.0 1.0 0.00 0.00 0.00 95 1074.6
20260831174107 67 265 3.0 3.0 0.00 0.00 0.00 92 1074.9
20260831173102 68 265 2.0 2.0 0.00 0.00 0.00 91 1075.0
20260831172057 68 275 1.0 1.0 0.00 0.00 0.00 90 1075.1
20260831171055 68 275 5.0 5.0 0.00 0.00 0.00 89 1075.1
20260831170054 68 266 2.0 2.0 0.00 0.00 0.00 90 1075.1
20260831165051 68 252 3.0 5.0 0.00 0.00 0.00 90 1074.9
20260831164048 67 267 1.0 2.0 0.00 0.00 0.00 90 1075.0
20260831163044 68 256 4.0 5.0 0.00 0.00 0.00 90 1075.1
20260831162041 69 275 1.0 1.0 0.00 0.00 0.00 88 1075.3
20260831161040 68 268 1.0 1.0 0.00 0.00 0.00 87 1075.1
20260831160035 68 249 1.0 1.0 0.00 0.00 0.00 88 1075.3
20260831155030 68 205 1.0 1.0 0.00 0.00 0.00 89 1075.2
20260831154026 68 241 1.0 1.0 0.00 0.00 0.00 90 1075.3
20260831153023 68 277 0.0 1.0 0.00 0.00 0.00 88 1075.2
20260831152019 68 200 3.0 3.0 0.00 0.00 0.00 89 1075.2
20260831151019 68 201 2.0 2.0 0.00 0.00 0.00 91 1075.4
20260831150016 67 264 1.0 1.0 0.00 0.00 0.00 92 1075.4
20260831145012 67 257 4.0 5.0 0.00 0.00 0.00 91 1075.2
20260831144009 67 199 3.0 3.0 0.00 0.00 0.00 92 1075.2
20260831143005 66 243 1.0 1.0 0.00 0.00 0.00 92 1075.3
20260831142002 67 232 1.0 1.0 0.00 0.00 0.00 93 1075.1
20260831140956 66 254 1.0 1.0 0.00 0.00 0.00 93 1075.6
20260831135955 66 250 1.0 1.0 0.00 0.00 0.00 97 1075.4
20260831134954 65 196 1.0 2.0 0.00 0.00 0.00 96 1075.4
20260831133951 64 223 1.0 1.0 0.00 0.00 0.00 99 1075.4
20260831132946 64 253 1.0 1.0 0.00 0.00 0.00 99 1075.4
20260831131941 63 210 1.0 2.0 0.00 0.00 0.00 99 1075.4
20260831130938 62 154 2.0 2.0 0.00 0.00 0.00 99 1075.8
20260831125933 62 174 2.0 2.0 0.00 0.00 0.00 99 1075.6
20260831124929 61 259 0.0 0.0 0.00 0.00 0.00 99 1076.1
20260831123926 61 262 0.0 0.0 0.00 0.00 0.00 99 1076.0
20260831122925 61 226 1.0 1.0 0.00 0.00 0.00 99 1075.9
20260831121921 60 266 0.0 0.0 0.00 0.00 0.00 99 1076.0
20260831120919 60 250 0.0 1.0 0.00 0.00 0.00 99 1075.9
20260831115919 60 244 1.0 1.0 0.00 0.00 0.00 99 1076.1
20260831114915 60 243 1.0 1.0 0.00 0.00 0.00 99 1076.0
20260831113910 59 205 1.0 1.0 0.00 0.00 0.00 99 1075.8
20260831112905 59 262 0.0 0.0 0.00 0.00 0.00 99 1075.7
20260831111900 59 261 1.0 1.0 0.00 0.00 0.00 99 1075.8
20260831110858 59 271 1.0 1.0 0.00 0.00 0.00 99 1075.7
20260831105857 59 271 1.0 1.0 0.00 0.00 0.00 99 1075.2
20260831104853 59 91 2.0 2.0 0.00 0.00 0.00 99 1075.2
20260831103849 60 255 0.0 0.0 0.00 0.00 0.00 99 1075.2
20260831102846 59 266 0.0 0.0 0.00 0.00 0.00 99 1075.2
20260831101842 59 264 0.0 0.0 0.00 0.00 0.00 99 1075.1
20260831100839 59 266 0.0 0.0 0.00 0.00 0.00 99 1075.0
20260831095834 59 276 0.0 0.0 0.00 0.00 0.00 99 1074.9
20260831094829 59 270 0.0 0.0 0.00 0.00 0.00 99 1074.9
20260831093826 59 270 0.0 0.0 0.00 0.00 0.00 99 1074.7
20260831092823 60 245 0.0 0.0 0.00 0.00 0.00 99 1074.9
20260831091819 59 268 0.0 0.0 0.00 0.00 0.00 99 1074.7
20260831090816 59 321 0.0 1.0 0.00 0.00 0.00 99 1074.5
20260831085814 59 277 0.0 0.0 0.00 0.00 0.00 99 1074.4
20260831084809 59 283 0.0 0.0 0.00 0.00 0.00 99 1074.6
20260831083807 60 287 0.0 0.0 0.00 0.00 0.00 99 1074.4